Aydin, Turkey

6:48 AM +03 on May 30, 2017 (GMT +0300)
Cildir

Weather History for LTBD - January, 2014

Change the Weather History Date:

Wednesday, January 29, 2014

  Actual Average Record
Temperature  
Mean Temperature 57 °F -  
Max Temperature 64 °F - - ()
Min Temperature 48 °F - - ()
Degree Days  
Heating Degree Days 8    
Growing Degree Days 7 (Base 50)    
Moisture  
Dew Point 48 °F    
Average Humidity 73    
Maximum Humidity 100    
Minimum Humidity 38    
Precipitation  
Precipitation 0.12 in - - ()
Sea Level Pressure  
Sea Level Pressure 29.77 in    
Wind  
Wind Speed 6 mph ()    
Max Wind Speed 18 mph    
Max Gust Speed -    
Visibility 8.3 miles    
Events Rain    
T = Trace of Precipitation, MM = Missing Value Source: Averaged Metar Reports

Daily Weather History Graph

Daily Weather History Graph

Search for Another Location

Airport or City:

Trip Planner

Search our weather history database for the weather conditions in past years. The results will help you decide how hot, cold, wet, or windy it might be!

Date:

Astronomy

Jan. 29, 2014 Rise Set
Actual Time 7:15 AM EET 5:28 PM EET
Civil Twilight 6:47 AM EET 5:56 PM EET
Nautical Twilight 6:15 AM EET 6:27 PM EET
Astronomical Twilight 5:44 AM EET 6:58 PM EET
Moon 5:34 AM EET (1/29) 4:05 PM EET (1/29)
Length of Visible Light 11h 08m
Length of Day
10h 13m
Waning Crescent, 3% of the Moon is Illuminated
Jan 29
Waning Crescent
Jan 30
New
Feb 6
First Quarter
Feb 15
Full
Feb 22
Last Quarter

Hourly Weather History & Observations

Time (EET) Temp. Dew Point Humidity Pressure Visibility Wind Dir Wind Speed Gust Speed Precip Events Conditions
2:00 AM 53 °F 48 °F 77% 29.58 in 6 mi ENE 4.6 mph - - Rain Light Rain Showers
5:00 AM 51 °F 49 °F 92% 29.58 in 6 mi ENE 1.2 mph - - Rain Light Rain Showers
6:36 AM 50.0 °F 50.0 °F 100% 29.59 in 5.0 mi North 2.3 mph - N/A Rain Light Rain Showers
6:50 AM 50.0 °F 50.0 °F 100% 29.59 in 5.0 mi East 3.5 mph - N/A Rain Light Rain Showers
7:50 AM 51.8 °F 51.8 °F 100% 29.65 in 5.0 mi SW 10.4 mph - N/A Rain Light Rain Showers
8:00 AM 51 °F 50 °F 97% 29.67 in 12 mi SSW 1.2 mph - - Rain Light Rain Showers
8:28 AM 53.6 °F 51.8 °F 94% 29.68 in 6.2 mi WSW 10.4 mph - N/A   Mostly Cloudy
8:50 AM 53.6 °F 51.8 °F 94% 29.71 in 6.2 mi West 11.5 mph - N/A   Mostly Cloudy
9:00 AM 52 °F 50 °F 90% 29.73 in 6 mi WNW 2.3 mph - - Rain Light Rain Showers
9:50 AM 59.0 °F 51.8 °F 77% 29.74 in 6.2 mi West 18.4 mph - N/A   Scattered Clouds
10:00 AM 55 °F 52 °F 87% 29.76 in 12 mi WNW 3.5 mph - - Rain Light Rain Showers
10:50 AM 57.2 °F 50.0 °F 77% 29.77 in 6.2 mi SW 9.2 mph - N/A   Mostly Cloudy
11:00 AM 56 °F 49 °F 69% 29.79 in 12 mi SW 2.3 mph - -   Partly Cloudy
11:50 AM 55.4 °F 50.0 °F 82% 29.80 in 6.2 mi SW 12.7 mph - N/A Rain Light Rain Showers
12:00 PM 56 °F 45 °F 56% 29.81 in 12 mi WSW 4.6 mph - - Rain Light Rain Showers
12:18 PM 55.4 °F 48.2 °F 77% 29.80 in 6.2 mi SW 11.5 mph - N/A   Mostly Cloudy
12:50 PM 59.0 °F 50.0 °F 72% 29.80 in 6.2 mi SW 13.8 mph - N/A   Mostly Cloudy
1:00 PM 61 °F 45 °F 45% 29.82 in 12 mi SW 5.8 mph - -   Partly Cloudy
1:50 PM 59.0 °F 44.6 °F 59% 29.80 in 6.2 mi SW 13.8 mph - N/A   Scattered Clouds
2:00 PM 61 °F 44 °F 42% 29.82 in 12 mi SW 5.8 mph - -   Partly Cloudy
2:50 PM 60.8 °F 42.8 °F 52% 29.83 in 6.2 mi WSW 17.3 mph - N/A   Scattered Clouds
3:00 PM 64 °F 45 °F 38% 29.84 in 12 mi WSW 3.5 mph - -   Partly Cloudy
3:50 PM 59.0 °F 44.6 °F 59% 29.86 in 6.2 mi WSW 17.3 mph - N/A   Scattered Clouds
4:00 PM 61 °F 44 °F 43% 29.86 in 12 mi West 4.6 mph - -   Partly Cloudy
4:50 PM 59.0 °F 46.4 °F 63% 29.89 in 6.2 mi West 10.4 mph - N/A   Scattered Clouds
5:00 PM 59 °F 42 °F 43% 29.89 in 12 mi West 3.5 mph - -   Partly Cloudy
8:00 PM 50 °F 46 °F 80% 29.98 in 12 mi NE 2.3 mph - -   Partly Cloudy
11:00 PM 48 °F 44 °F 82% 30.05 in 12 mi East 2.3 mph - -   Scattered Clouds